Total_Precipitation_Accumulation
0.00 0.00 0.00 0.00 0.00 0.00 0.00 0.01 0.04 0.16 0.24 0.24 0.24 0.24 0.17 0.30 0.33 0.25 0.13 0.02 0.00 0.00 0.00 0.00 0.00 0.00 0.00 0.00 0.00 0.00 0.00 0.00
0.00 0.00 0.00 0.00 0.00 0.00 0.00 0.00 0.04 0.17 0.18 0.12 0.13 0.10 0.22 0.16 0.12 0.30 0.54 0.32 0.07 0.03 0.00 0.00 0.00 0.00 0.00 0.00 0.00 0.00 0.00 0.00
0.00 0.00 0.00 0.00 0.00 0.00 0.00 0.00 0.01 0.10 0.16 0.16 0.16 0.16 0.21 0.26 0.20 0.18 0.23 0.32 0.11 0.07 0.02 0.02 0.00 0.00 0.00 0.00 0.00 0.00 0.00 0.00
0.00 0.00 0.00 0.00 0.00 0.00 0.00 0.01 0.01 0.00 0.03 0.11 0.12 0.17 0.16 0.15 0.17 0.17 0.22 0.26 0.45 0.32 0.04 0.02 0.02 0.01 0.00 0.00 0.00 0.00 0.00 0.00
0.00 0.00 0.00 0.00 0.00 0.00 0.00 0.02 0.11 0.07 0.07 0.05 0.06 0.08 0.09 0.11 0.17 0.26 0.26 0.26 0.35 0.56 0.38 0.09 0.05 0.05 0.01 0.00 0.00 0.00 0.00 0.00
0.00 0.00 0.00 0.00 0.00 0.00 0.00 0.01 0.15 0.20 0.24 0.09 0.08 0.04 0.05 0.11 0.19 0.24 0.34 0.55 0.59 0.62 0.72 0.54 0.25 0.14 0.08 0.03 0.00 0.00 0.00 0.00
0.00 0.00 0.00 0.00 0.00 0.00 0.00 0.00 0.05 0.18 0.32 0.33 0.14 0.08 0.08 0.06 0.08 0.16 0.18 0.51 1.04 1.26 0.95 0.86 0.64 0.34 0.13 0.07 0.02 0.01 0.00 0.00
0.00 0.00 0.00 0.00 0.00 0.00 0.00 0.00 0.06 0.19 0.25 0.31 0.29 0.15 0.18 0.11 0.06 0.08 0.08 0.22 0.41 0.64 1.13 1.05 1.07 1.27 0.95 0.36 0.21 0.07 0.03 0.01
0.00 0.00 0.00 0.00 0.00 0.00 0.00 0.00 0.00 0.10 0.11 0.13 0.19 0.27 0.16 0.19 0.12 0.07 0.04 0.03 0.14 0.38 0.49 0.63 0.56 0.60 0.86 0.90 0.77 0.44 0.14 0.08
0.00 0.00 0.00 0.00 0.00 0.00 0.00 0.00 0.00 0.05 0.06 0.09 0.11 0.15 0.15 0.06 0.09 0.10 0.06 0.05 0.02 0.12 0.18 0.36 0.45 0.43 0.48 0.59 0.70 0.77 0.29 0.08
0.00 0.00 0.00 0.00 0.00 0.00 0.00 0.00 0.01 0.14 0.29 0.29 0.28 0.33 0.28 0.27 0.23 0.26 0.18 0.13 0.16 0.10 0.09 0.14 0.31 0.43 0.45 0.46 0.33 0.36 0.45 0.14
0.00 0.00 0.00 0.00 0.00 0.00 0.00 0.00 0.00 0.04 0.28 0.63 0.66 0.49 0.45 0.43 0.51 0.40 0.41 0.33 0.33 0.31 0.20 0.13 0.16 0.30 0.44 0.53 0.54 0.50 0.37 0.26
0.00 0.00 0.01 0.01 0.00 0.00 0.00 0.00 0.00 0.00 0.06 0.53 0.92 0.84 0.72 0.67 0.61 0.49 0.46 0.44 0.44 0.35 0.34 0.30 0.18 0.18 0.26 0.37 0.45 0.52 0.65 0.72
0.04 0.03 0.02 0.02 0.01 0.00 0.00 0.00 0.00 0.00 0.02 0.25 0.62 0.58 0.64 0.61 0.61 0.69 0.82 0.90 0.47 0.34 0.39 0.36 0.23 0.23 0.24 0.22 0.33 0.43 0.48 0.50
0.11 0.16 0.14 0.07 0.02 0.00 0.00 0.00 0.00 0.00 0.00 0.10 0.33 0.52 0.45 0.34 0.35 0.34 0.45 0.62 0.85 0.59 0.31 0.32 0.43 0.39 0.28 0.32 0.36 0.30 0.25 0.31
0.20 0.23 0.31 0.19 0.09 0.03 0.01 0.00 0.00 0.00 0.00 0.02 0.15 0.31 0.38 0.36 0.35 0.41 0.47 0.52 0.56 0.62 0.74 0.55 0.30 0.43 0.53 0.52 0.47 0.50 0.48 0.38
0.28 0.30 0.31 0.24 0.11 0.05 0.02 0.00 0.00 0.00 0.01 0.01 0.03 0.14 0.22 0.34 0.38 0.32 0.42 0.50 0.57 0.68 0.67 0.74 0.54 0.42 0.40 0.33 0.37 0.33 0.31 0.31
0.19 0.27 0.26 0.18 0.06 0.03 0.01 0.00 0.00 0.00 0.00 0.00 0.01 0.03 0.10 0.18 0.39 0.54 0.39 0.25 0.27 0.35 0.45 0.82 1.32 1.28 0.78 0.42 0.36 0.40 0.31 0.22
0.06 0.18 0.20 0.13 0.05 0.04 0.03 0.01 0.00 0.00 0.01 0.01 0.00 0.00 0.04 0.15 0.26 0.31 0.48 0.58 0.49 0.37 0.29 0.31 0.52 1.07 1.66 1.57 1.10 0.66 0.56 0.53